Location: Unspecified
(22.6800°N, 112.2000°E)
Time: 13:13:30
(UTC+08:00)

Transit 2A - Pass Details

Date: 12 August 2021
Orbit: 594 x 964 km, 66.7° (Epoch: 21 September)

Event Time Altitude Azimuth Distance (km) Brightness Sun altitude
Rises 03:35:16 0° 212° (SSW) 2,819 - -32.2°
Reaches altitude 10° 03:37:32 10° 218° (SW) 1,918 - -31.8°
Maximum altitude 03:41:41 51° 294° (WNW) 758 - -31.0°
Exits shadow 03:44:16 22° 2° (N) 1,341 7.6 -30.5°
Drops below altitude 10° 03:46:01 10° 11° (N) 1,996 8.7 -30.2°
Sets 03:48:24 0° 16° (NNE) 2,946 9.7 -29.8°
